User: anonymous   Login
Location: Limoges
(45.8354°N, 1.2645°E)
Time: 08:41:40
(UTC+01:00)
Language:

Courier 1B Rocket - Orbit

View from above orbital plane
View from above orbital plane
View from above satellite
View from above satellite

Ground track
Ground track

The orbit data is extracted from the following two-line orbital elements,

1 00059U 60013B   24055.88446568  .00000132  00000-0  62121-4 0  9991
2 00059  28.2468 136.4457 0189167  76.0200 286.1303 13.53059512128865
Epoch (UTC): 24 February 2024 21:13:37
Eccentricity: 0.0189167
inclination: 28.2468°
perigee height: 920 km
apogee height: 1202 km
right ascension of ascending node: 136.4457°
argument of perigee: 76.0200°
revolutions per day: 13.53059512
mean anomaly at epoch: 286.1303°
orbit number at epoch: 12886

The dashed part of the orbit path shows where the satellite is in the earth's shadow,  

DLR